Location: Bonny Doon Airfield
(37.0704°N, 122.1252°W)
Time: 01:53:27
(UTC-07:00)

Vanguard 1 Rocket - Visible Passes

Search period start: 20 October 2017 00:00
Search period end: 30 October 2017 00:00
Orbit: 655 x 4222 km, 34.3° (Epoch: 19 October)

Date Brightness Start Highest point End Pass type
(mag) Time Alt. Az. Time Alt. Az. Time Alt. Az.
20 Oct 9.9 06:08:09 10° SSW 06:16:44 25° SSE 06:22:11 10° ESE visible
21 Oct 10.4 04:56:34 10° SSW 05:04:58 19° SSE 05:10:45 10° ESE visible
22 Oct 10.9 03:46:34 10° S 03:52:44 13° SSE 03:57:36 10° SE visible
22 Oct 9.5 06:09:50 10° SW 06:20:07 34° SSE 06:26:07 10° E visible
23 Oct 10.1 04:57:15 10° SSW 05:08:22 27° SSE 05:15:12 10° ESE visible
24 Oct 10.6 03:49:28 15° S 03:56:07 20° SSE 04:03:23 10° ESE visible
24 Oct 9.2 06:11:52 10° SW 06:23:28 44° SSE 06:29:49 10° E visible
25 Oct 11.1 02:43:17 14° SSE 02:43:24 14° SSE 02:49:28 10° ESE visible
25 Oct 9.8 05:00:40 14° SSW 05:11:42 35° SSE 05:19:10 10° E visible
26 Oct 10.4 03:54:20 23° S 03:59:27 28° SSE 04:07:56 10° E visible
26 Oct 9.0 06:14:11 10° WSW 06:26:45 54° SSE 06:33:23 10° E visible
27 Oct 10.8 02:47:54 20° SE 02:47:54 20° SE 02:55:31 10° ESE visible
27 Oct 9.5 05:05:15 20° SW 05:15:00 45° SSE 05:22:54 10° E visible
28 Oct 10.1 03:58:41 32° S 04:02:42 36° SSE 04:11:57 10° E visible
28 Oct 8.8 06:16:42 10° WSW 06:30:03 63° SSE 06:36:52 10° E visible
29 Oct 10.6 02:52:03 27° SE 02:52:03 27° SE 03:00:13 10° E visible
29 Oct 9.3 05:09:23 26° SW 05:18:14 54° SSE 05:26:28 10° E visible
